Météo par heure à Kyshyn

Ce jour, 25 Juillet, Dimanche

Heure Température Précipitation Vent Pression Humidité
00:00 +21°C° 0 mm 1 m/s 745 mmHg 64%
01:00 +20°C° 0 mm 1 m/s 745 mmHg 65%
02:00 +18°C° 0 mm 0 m/s 745 mmHg 65%
03:00 +18°C° 0 mm 0 m/s 745 mmHg 66%
04:00 +18°C° 0 mm 0 m/s 745 mmHg 66%
05:00 +18°C° 0 mm 0 m/s 745 mmHg 67%
06:00 +19°C° 0 mm 0 m/s 746 mmHg 65%
07:00 +20°C° 0 mm 0 m/s 746 mmHg 64%
08:00 +21°C° 0 mm 0 m/s 746 mmHg 62%
09:00 +24°C° 0 mm 1 m/s 746 mmHg 58%
10:00 +25°C° 0 mm 1 m/s 746 mmHg 53%
11:00 +27°C° 0 mm 1 m/s 746 mmHg 49%
12:00 +27°C° 0 mm 2 m/s 746 mmHg 49%
13:00 +27°C° 0 mm 2 m/s 746 mmHg 50%
14:00 +27°C° 0 mm 2 m/s 746 mmHg 50%
15:00 +27°C° 0 mm 2 m/s 746 mmHg 50%
16:00 +27°C° 0 mm 1 m/s 746 mmHg 50%
17:00 +27°C° 0 mm 1 m/s 746 mmHg 49%
18:00 +25°C° 0 mm 1 m/s 746 mmHg 57%
19:00 +23°C° 0 mm 2 m/s 746 mmHg 64%
20:00 +21°C° 0 mm 2 m/s 746 mmHg 71%
21:00 +20°C° 0 mm 2 m/s 746 mmHg 71%
22:00 +19°C° 0 mm 2 m/s 747 mmHg 72%
23:00 +19°C° 0 mm 2 m/s 747 mmHg 72%

Demain, 26 Juillet, Lundi

Heure Température Précipitation Vent Pression Humidité
00:00 +19°C° 0 mm 2 m/s 747 mmHg 72%
01:00 +18°C° 0 mm 2 m/s 747 mmHg 73%
02:00 +18°C° 0 mm 2 m/s 747 mmHg 73%
03:00 +18°C° 0 mm 2 m/s 747 mmHg 75%
04:00 +17°C° 0 mm 2 m/s 747 mmHg 77%
05:00 +17°C° 0 mm 2 m/s 747 mmHg 79%
06:00 +19°C° 0 mm 2 m/s 747 mmHg 72%
07:00 +21°C° 0 mm 3 m/s 747 mmHg 64%
08:00 +24°C° 0 mm 3 m/s 747 mmHg 56%
09:00 +25°C° 0 mm 3 m/s 747 mmHg 52%
10:00 +27°C° 0 mm 4 m/s 747 mmHg 48%
11:00 +28°C° 0 mm 4 m/s 747 mmHg 44%
12:00 +29°C° 0 mm 4 m/s 747 mmHg 42%
13:00 +29°C° 0 mm 4 m/s 747 mmHg 41%
14:00 +30°C° 0 mm 4 m/s 747 mmHg 39%
15:00 +29°C° 0 mm 4 m/s 746 mmHg 42%
16:00 +29°C° 0 mm 3 m/s 746 mmHg 45%
17:00 +28°C° 0 mm 3 m/s 746 mmHg 49%
18:00 +27°C° 0 mm 3 m/s 746 mmHg 54%
19:00 +25°C° 0 mm 3 m/s 746 mmHg 60%
20:00 +24°C° 0 mm 3 m/s 746 mmHg 66%
21:00 +24°C° 0 mm 3 m/s 746 mmHg 66%
22:00 +24°C° 0 mm 3 m/s 746 mmHg 65%
23:00 +22°C° 0 mm 4 m/s 746 mmHg 65%

Après-demain, 27 Juillet, Mardi

Heure Température Précipitation Vent Pression Humidité
00:00 +22°C° 0 mm 4 m/s 746 mmHg 68%
01:00 +21°C° 0 mm 3 m/s 746 mmHg 71%
02:00 +20°C° 0 mm 3 m/s 746 mmHg 75%
03:00 +20°C° 0 mm 3 m/s 746 mmHg 74%
04:00 +20°C° 0 mm 3 m/s 745 mmHg 73%
05:00 +19°C° 0 mm 3 m/s 745 mmHg 72%
06:00 +21°C° 0 mm 4 m/s 745 mmHg 66%
07:00 +23°C° 0 mm 4 m/s 745 mmHg 61%
08:00 +26°C° 0 mm 5 m/s 745 mmHg 55%
09:00 +27°C° 0 mm 5 m/s 745 mmHg 50%
10:00 +29°C° 0 mm 5 m/s 745 mmHg 45%
11:00 +32°C° 0 mm 5 m/s 745 mmHg 40%
12:00 +33°C° 0 mm 6 m/s 744 mmHg 40%
13:00 +33°C° 0 mm 6 m/s 744 mmHg 39%
14:00 +34°C° 0 mm 6 m/s 744 mmHg 38%
15:00 +33°C° 0 mm 6 m/s 744 mmHg 41%
16:00 +33°C° 0 mm 6 m/s 743 mmHg 45%
17:00 +32°C° 0 mm 5 m/s 743 mmHg 49%
18:00 +29°C° 0.9 mm 5 m/s 743 mmHg 61%
19:00 +26°C° 0.9 mm 5 m/s 743 mmHg 74%
20:00 +23°C° 0.9 mm 5 m/s 743 mmHg 86%
21:00 +22°C° 0.6 mm 4 m/s 743 mmHg 88%
22:00 +21°C° 0.6 mm 3 m/s 743 mmHg 91%
23:00 +21°C° 0.6 mm 2 m/s 743 mmHg 93%

28 Juillet, Mercredi

Heure Température Précipitation Vent Pression Humidité
00:00 +21°C° 0.9 mm 2 m/s 743 mmHg 94%
01:00 +20°C° 0.9 mm 2 m/s 743 mmHg 96%
02:00 +20°C° 0.9 mm 2 m/s 743 mmHg 97%
03:00 +19°C° 0 mm 2 m/s 743 mmHg 97%
04:00 +19°C° 0 mm 2 m/s 743 mmHg 97%
05:00 +19°C° 0 mm 2 m/s 743 mmHg 97%
06:00 +20°C° 0 mm 2 m/s 743 mmHg 92%
07:00 +21°C° 0 mm 2 m/s 744 mmHg 87%
08:00 +23°C° 0 mm 2 m/s 744 mmHg 81%
09:00 +25°C° 0 mm 2 m/s 744 mmHg 71%
10:00 +27°C° 0 mm 2 m/s 744 mmHg 61%
11:00 +29°C° 0 mm 2 m/s 744 mmHg 51%
12:00 +30°C° 0 mm 2 m/s 744 mmHg 47%
13:00 +30°C° 0 mm 2 m/s 744 mmHg 43%
14:00 +31°C° 0 mm 2 m/s 743 mmHg 39%
15:00 +31°C° 0 mm 2 m/s 743 mmHg 41%
16:00 +31°C° 0 mm 2 m/s 743 mmHg 42%
17:00 +31°C° 0 mm 2 m/s 743 mmHg 44%
18:00 +29°C° 0 mm 2 m/s 743 mmHg 50%
19:00 +27°C° 0 mm 1 m/s 743 mmHg 56%
20:00 +25°C° 0 mm 1 m/s 743 mmHg 63%
21:00 +24°C° 0 mm 1 m/s 743 mmHg 65%
22:00 +23°C° 0 mm 1 m/s 743 mmHg 67%
23:00 +23°C° 0 mm 1 m/s 743 mmHg 69%

29 Juillet, Jeudi

Heure Température Précipitation Vent Pression Humidité
00:00 +22°C° 0 mm 1 m/s 743 mmHg 70%
01:00 +22°C° 0 mm 1 m/s 743 mmHg 71%
02:00 +22°C° 0 mm 1 m/s 742 mmHg 73%
03:00 +21°C° 0 mm 1 m/s 743 mmHg 75%
04:00 +21°C° 0 mm 1 m/s 743 mmHg 78%
05:00 +20°C° 0 mm 1 m/s 743 mmHg 80%
06:00 +23°C° 0 mm 1 m/s 743 mmHg 74%
07:00 +25°C° 0 mm 1 m/s 743 mmHg 68%
08:00 +27°C° 0 mm 1 m/s 743 mmHg 62%
09:00 +28°C° 0 mm 1 m/s 743 mmHg 58%
10:00 +30°C° 0 mm 2 m/s 743 mmHg 53%
11:00 +31°C° 0 mm 2 m/s 743 mmHg 49%
12:00 +32°C° 0 mm 2 m/s 742 mmHg 47%
13:00 +32°C° 0 mm 2 m/s 742 mmHg 45%
14:00 +34°C° 0 mm 2 m/s 742 mmHg 43%
15:00 +32°C° 0 mm 2 m/s 742 mmHg 47%
16:00 +31°C° 0 mm 2 m/s 741 mmHg 51%
17:00 +30°C° 0 mm 2 m/s 741 mmHg 55%
18:00 +29°C° 0 mm 1 m/s 741 mmHg 59%
19:00 +28°C° 0 mm 1 m/s 742 mmHg 63%
20:00 +27°C° 0 mm 1 m/s 742 mmHg 67%
21:00 +26°C° 0 mm 1 m/s 742 mmHg 71%
22:00 +25°C° 0 mm 1 m/s 742 mmHg 76%
23:00 +23°C° 0 mm 1 m/s 742 mmHg 80%

30 Juillet, Vendredi

Heure Température Précipitation Vent Pression Humidité
00:00 +23°C° 0 mm 2 m/s 742 mmHg 82%
01:00 +23°C° 0 mm 2 m/s 742 mmHg 83%
02:00 +21°C° 0 mm 2 m/s 742 mmHg 85%
03:00 +21°C° 0 mm 2 m/s 742 mmHg 87%
04:00 +20°C° 0 mm 2 m/s 742 mmHg 89%
05:00 +20°C° 0 mm 2 m/s 742 mmHg 90%
06:00 +23°C° 0 mm 2 m/s 743 mmHg 82%
07:00 +25°C° 0 mm 2 m/s 743 mmHg 74%
08:00 +27°C° 0 mm 2 m/s 743 mmHg 65%
09:00 +28°C° 0 mm 2 m/s 743 mmHg 57%
10:00 +30°C° 0 mm 2 m/s 743 mmHg 49%
11:00 +31°C° 0 mm 2 m/s 743 mmHg 41%
12:00 +32°C° 0 mm 2 m/s 743 mmHg 39%
13:00 +33°C° 0 mm 1 m/s 743 mmHg 36%
14:00 +33°C° 0 mm 1 m/s 742 mmHg 34%
15:00 +33°C° 0 mm 1 m/s 742 mmHg 34%
16:00 +33°C° 0 mm 1 m/s 742 mmHg 35%
17:00 +31°C° 0 mm 0 m/s 742 mmHg 35%
18:00 +31°C° 0 mm 1 m/s 741 mmHg 43%
19:00 +29°C° 0 mm 1 m/s 741 mmHg 50%
20:00 +26°C° 0 mm 1 m/s 741 mmHg 57%
21:00 +26°C° 0 mm 2 m/s 741 mmHg 60%
22:00 +25°C° 0 mm 2 m/s 741 mmHg 63%
23:00 +24°C° 0 mm 2 m/s 741 mmHg 66%
Voir plus

Nous avons besoin de votre consentement

Meteoprog et ses fournisseurs de services peuvent stocker et accéder à des données personnelles telles que des cookies, des identifiants d'appareils ou d'autres technologies similaires sur votre appareil et traiter ces données pour personnaliser le contenu et les publicités, ainsi que pour fournir des fonctionnalités de médias sociaux et analyser le trafic.

  • Stocker et/ou accéder à des informations sur votre appareil

    Des cookies, des identifiants d'appareils ou d'autres informations peuvent être stockés ou accessibles sur votre appareil aux fins indiquées ci-dessus.

  • Annonces et contenus personnalisés, mesure des annonces et des contenus, connaissance de l'audience et développement de produits

    Les annonces et le contenu peuvent être personnalisés en fonction d'un profil. D'autres données peuvent être ajoutées pour mieux personnaliser les annonces et le contenu. Les performances des publicités et du contenu peuvent être mesurées. Il est possible d'obtenir des informations sur le public qui a vu les publicités et le contenu. Ces données peuvent être utilisées pour développer ou améliorer l'expérience de l'utilisateur, les systèmes et les logiciels.

En cliquant sur "J'accepte", vous autorisez l'utilisation de cookies, des identifiants d'appareils, des balises web ou d'autres technologies similaires. Vos paramètres peuvent être modifiés dans le navigateur de votre appareil.

Dans certains cas, des intérêts légitimes peuvent être invoqués plutôt qu'un consentement. Vous pouvez en savoir plus à ce sujet dans notre Politique de confidentialité et de cookies.